When you browse on this site, cookies collect data to enhance your experience and personalize the content and advertising you see.
Visit our Privacy Policy to learn more. By continuing to use the site, you agree to this use of cookies and data.
  • In Hungary
  • List of Countries
  • For 7 days
  • Water Temperature
  • Weather Map
  • News
  • Weather Widgets
  • user-avatar
    Login

    Hourly Weather Toretsk (Dzerzhinsk)

    Today, 21 November, Thursday

    Time Temperature Precipitation Wind Pressure Humidity
    00:00 -6°C° 0 mm 8 mps 761 mmHg 71%
    01:00 -6°C° 0 mm 8 mps 761 mmHg 68%
    02:00 -7°C° 0 mm 8 mps 762 mmHg 66%
    03:00 -7°C° 0 mm 7 mps 762 mmHg 67%
    04:00 -8°C° 0 mm 7 mps 762 mmHg 64%
    05:00 -9°C° 0 mm 7 mps 762 mmHg 62%
    06:00 -11°C° 0 mm 8 mps 762 mmHg 59%
    07:00 -11°C° 0 mm 8 mps 763 mmHg 57%
    08:00 -12°C° 0 mm 8 mps 763 mmHg 54%
    09:00 -12°C° 0 mm 8 mps 764 mmHg 53%
    10:00 -11°C° 0 mm 8 mps 764 mmHg 48%
    11:00 -11°C° 0 mm 8 mps 764 mmHg 44%
    12:00 -10°C° 0 mm 8 mps 764 mmHg 39%
    13:00 -10°C° 0 mm 8 mps 764 mmHg 37%
    14:00 -10°C° 0 mm 8 mps 763 mmHg 34%
    15:00 -8°C° 0 mm 8 mps 763 mmHg 32%
    16:00 -10°C° 0 mm 8 mps 763 mmHg 30%
    17:00 -11°C° 0 mm 8 mps 763 mmHg 29%
    18:00 -12°C° 0 mm 7 mps 764 mmHg 27%
    19:00 -12°C° 0 mm 7 mps 764 mmHg 29%
    20:00 -12°C° 0 mm 8 mps 764 mmHg 31%
    21:00 -12°C° 0 mm 8 mps 764 mmHg 32%
    22:00 -12°C° 0 mm 8 mps 764 mmHg 34%
    23:00 -13°C° 0 mm 8 mps 764 mmHg 37%

    Tomorrow, 22 November, Friday

    Time Temperature Precipitation Wind Pressure Humidity
    00:00 -13°C° 0 mm 8 mps 764 mmHg 39%
    01:00 -13°C° 0 mm 8 mps 764 mmHg 42%
    02:00 -13°C° 0 mm 8 mps 764 mmHg 45%
    03:00 -13°C° 0 mm 7 mps 764 mmHg 48%
    04:00 -13°C° 0 mm 7 mps 764 mmHg 50%
    05:00 -13°C° 0 mm 7 mps 764 mmHg 52%
    06:00 -14°C° 0 mm 7 mps 763 mmHg 54%
    07:00 -13°C° 0 mm 7 mps 764 mmHg 52%
    08:00 -13°C° 0 mm 8 mps 764 mmHg 51%
    09:00 -13°C° 0 mm 8 mps 764 mmHg 50%
    10:00 -11°C° 0 mm 8 mps 763 mmHg 45%
    11:00 -10°C° 0 mm 8 mps 763 mmHg 40%
    12:00 -8°C° 0 mm 8 mps 763 mmHg 35%
    13:00 -7°C° 0 mm 8 mps 763 mmHg 34%
    14:00 -7°C° 0 mm 8 mps 762 mmHg 33%
    15:00 -7°C° 0 mm 8 mps 762 mmHg 32%
    16:00 -7°C° 0 mm 7 mps 762 mmHg 33%
    17:00 -8°C° 0 mm 7 mps 762 mmHg 35%
    18:00 -9°C° 0 mm 7 mps 762 mmHg 36%
    19:00 -9°C° 0 mm 7 mps 762 mmHg 37%
    20:00 -9°C° 0 mm 7 mps 762 mmHg 38%
    21:00 -11°C° 0 mm 7 mps 762 mmHg 38%
    22:00 -11°C° 0 mm 7 mps 762 mmHg 40%
    23:00 -11°C° 0 mm 7 mps 762 mmHg 41%

    Day after tomorrow, 23 November, Saturday

    Time Temperature Precipitation Wind Pressure Humidity
    00:00 -11°C° 0 mm 7 mps 761 mmHg 43%
    01:00 -11°C° 0 mm 7 mps 761 mmHg 44%
    02:00 -12°C° 0 mm 7 mps 761 mmHg 45%
    03:00 -11°C° 0 mm 6 mps 761 mmHg 46%
    04:00 -11°C° 0 mm 6 mps 761 mmHg 46%
    05:00 -11°C° 0 mm 6 mps 761 mmHg 47%
    06:00 -11°C° 0 mm 6 mps 761 mmHg 47%
    07:00 -12°C° 0 mm 7 mps 761 mmHg 45%
    08:00 -12°C° 0 mm 7 mps 761 mmHg 44%
    09:00 -11°C° 0 mm 7 mps 761 mmHg 42%
    10:00 -9°C° 0 mm 7 mps 761 mmHg 37%
    11:00 -7°C° 0 mm 7 mps 760 mmHg 32%
    12:00 -4°C° 0 mm 7 mps 760 mmHg 27%
    13:00 -4°C° 0 mm 7 mps 760 mmHg 26%
    14:00 -3°C° 0 mm 7 mps 760 mmHg 25%
    15:00 -3°C° 0 mm 7 mps 759 mmHg 25%
    16:00 -4°C° 0 mm 7 mps 759 mmHg 27%
    17:00 -6°C° 0 mm 7 mps 759 mmHg 29%
    18:00 -6°C° 0 mm 6 mps 759 mmHg 31%
    19:00 -6°C° 0 mm 6 mps 759 mmHg 32%
    20:00 -6°C° 0 mm 6 mps 759 mmHg 32%
    21:00 -8°C° 0 mm 6 mps 759 mmHg 33%
    22:00 -8°C° 0 mm 6 mps 759 mmHg 34%
    23:00 -8°C° 0 mm 6 mps 759 mmHg 35%

    24 November, Sunday

    Time Temperature Precipitation Wind Pressure Humidity
    00:00 -8°C° 0 mm 6 mps 759 mmHg 37%
    01:00 -9°C° 0 mm 6 mps 759 mmHg 38%
    02:00 -9°C° 0 mm 6 mps 759 mmHg 39%
    03:00 -9°C° 0 mm 6 mps 758 mmHg 40%
    04:00 -9°C° 0 mm 6 mps 758 mmHg 42%
    05:00 -9°C° 0 mm 6 mps 758 mmHg 44%
    06:00 -9°C° 0 mm 6 mps 758 mmHg 46%
    07:00 -9°C° 0 mm 6 mps 758 mmHg 47%
    08:00 -8°C° 0 mm 6 mps 758 mmHg 48%
    09:00 -8°C° 0 mm 7 mps 758 mmHg 49%
    10:00 -7°C° 0 mm 7 mps 758 mmHg 46%
    11:00 -4°C° 0 mm 7 mps 757 mmHg 42%
    12:00 -3°C° 0 mm 7 mps 757 mmHg 38%
    13:00 -2°C° 0 mm 7 mps 757 mmHg 37%
    14:00 -2°C° 0 mm 7 mps 757 mmHg 35%
    15:00 -1°C° 0 mm 7 mps 756 mmHg 33%
    16:00 -2°C° 0 mm 6 mps 756 mmHg 36%
    17:00 -4°C° 0 mm 6 mps 756 mmHg 38%
    18:00 -5°C° 0 mm 5 mps 756 mmHg 40%
    19:00 -5°C° 0 mm 6 mps 756 mmHg 42%
    20:00 -5°C° 0 mm 6 mps 756 mmHg 44%
    21:00 -5°C° 0 mm 6 mps 756 mmHg 46%
    22:00 -6°C° 0 mm 6 mps 756 mmHg 50%
    23:00 -6°C° 0 mm 6 mps 756 mmHg 53%

    25 November, Monday

    Time Temperature Precipitation Wind Pressure Humidity
    00:00 -6°C° 0 mm 6 mps 756 mmHg 56%
    01:00 -6°C° 0 mm 5 mps 756 mmHg 59%
    02:00 -6°C° 0 mm 5 mps 756 mmHg 61%
    03:00 -6°C° 0 mm 5 mps 756 mmHg 64%
    04:00 -6°C° 0 mm 5 mps 756 mmHg 65%
    05:00 -6°C° 0 mm 5 mps 756 mmHg 67%
    06:00 -6°C° 0 mm 6 mps 756 mmHg 68%
    07:00 -6°C° 0 mm 6 mps 756 mmHg 69%
    08:00 -6°C° 0 mm 6 mps 756 mmHg 69%
    09:00 -5°C° 0 mm 6 mps 756 mmHg 70%
    10:00 -4°C° 0 mm 6 mps 755 mmHg 66%
    11:00 -2°C° 0 mm 7 mps 755 mmHg 62%
    12:00 -1°C° 0 mm 7 mps 755 mmHg 59%
    13:00 0°C° 0 mm 7 mps 755 mmHg 58%
    14:00 0°C° 0 mm 7 mps 754 mmHg 57%
    15:00 +1°C° 0 mm 6 mps 754 mmHg 56%
    16:00 -1°C° 0 mm 6 mps 754 mmHg 59%
    17:00 -1°C° 0 mm 5 mps 754 mmHg 62%
    18:00 -2°C° 0 mm 5 mps 754 mmHg 66%
    19:00 -4°C° 0 mm 5 mps 754 mmHg 65%
    20:00 -4°C° 0 mm 5 mps 754 mmHg 65%
    21:00 -4°C° 0 mm 5 mps 754 mmHg 64%
    22:00 -5°C° 0 mm 5 mps 754 mmHg 64%
    23:00 -5°C° 0 mm 5 mps 753 mmHg 64%

    26 November, Tuesday

    Time Temperature Precipitation Wind Pressure Humidity
    00:00 -5°C° 0 mm 5 mps 753 mmHg 64%
    01:00 -5°C° 0 mm 5 mps 753 mmHg 63%
    02:00 -5°C° 0 mm 5 mps 753 mmHg 63%
    03:00 -6°C° 0 mm 5 mps 753 mmHg 62%
    04:00 -6°C° 0 mm 5 mps 752 mmHg 63%
    05:00 -6°C° 0 mm 5 mps 752 mmHg 65%
    06:00 -6°C° 0 mm 5 mps 752 mmHg 66%
    07:00 -6°C° 0 mm 5 mps 752 mmHg 68%
    08:00 -5°C° 0 mm 5 mps 752 mmHg 70%
    09:00 -5°C° 0 mm 6 mps 752 mmHg 71%
    10:00 -3°C° 0 mm 6 mps 752 mmHg 68%
    11:00 -2°C° 0 mm 6 mps 751 mmHg 64%
    12:00 +1°C° 0 mm 6 mps 751 mmHg 61%
    13:00 +1°C° 0 mm 6 mps 751 mmHg 61%
    14:00 +1°C° 0 mm 6 mps 750 mmHg 62%
    15:00 +1°C° 0 mm 6 mps 750 mmHg 62%
    16:00 0°C° 0 mm 5 mps 750 mmHg 67%
    17:00 0°C° 0 mm 5 mps 750 mmHg 73%
    18:00 -1°C° 0 mm 4 mps 750 mmHg 78%
    19:00 0°C° 0 mm 5 mps 750 mmHg 77%
    20:00 0°C° 0 mm 5 mps 750 mmHg 77%
    21:00 0°C° 0 mm 5 mps 750 mmHg 76%
    22:00 -1°C° 0 mm 5 mps 750 mmHg 79%
    23:00 -2°C° 0 mm 5 mps 750 mmHg 81%
    Show more